CAPE
0 0 0 16 68 0 124 104 207 272 292 416 524 539 579 407 349 358 444 273 5 26 280 431 509 516 502 531 640 867 1036 1237 1455 1450 1132 1078 1284 1646 1817 1856 2194 2243 1680 1427
0 0 0 0 0 0 0 5 32 103 322 427 521 700 718 553 481 396 343 280 0 25 245 390 430 436 485 545 604 807 1006 1362 1664 1336 1001 999 1205 1567 1814 2164 2047 2005 1624 1595
0 0 0 0 0 0 2 8 0 22 495 492 512 518 696 767 614 557 434 271 11 44 157 264 375 364 373 442 632 760 1090 1254 1658 1336 1342 1422 1314 1803 1848 2131 2114 593 1227 1315
0 0 0 0 0 0 5 0 0 2 124 384 331 369 709 792 761 669 568 417 207 1 135 195 244 316 330 339 458 721 1015 1341 1715 1716 1338 1052 973 1137 982 1553 1706 1341 1963 2008
0 0 0 0 0 0 0 0 0 0 0 26 325 314 544 651 830 775 723 565 385 95 50 130 123 164 260 334 427 608 1003 1351 1464 1813 1534 1542 1087 1104 1322 1881 2368 2136 2244 2034
0 0 0 0 0 0 0 0 0 0 0 0 40 224 219 493 598 688 771 733 524 345 96 109 124 141 259 318 463 554 1019 1454 1619 1920 1815 1847 1292 1421 1621 1598 1905 1703 1687 1761
0 0 0 0 0 0 0 0 20 14 15 1 119 202 294 266 300 255 332 704 696 522 319 213 183 228 343 417 510 553 1022 1509 1720 1797 1946 1996 1481 2005 1967 1766 1330 1861 1661 1622
0 0 0 0 0 0 0 0 10 14 0 33 95 60 222 164 50 43 98 408 672 668 514 400 328 276 403 569 663 755 1279 1623 1639 1679 1889 2082 1963 1864 1857 1722 1604 1622 1700 1779
0 0 0 0 0 0 0 0 2 2 0 0 0 39 0 0 18 225 336 361 504 738 622 530 449 312 414 632 757 952 1382 1692 1659 1591 1969 2156 2180 1916 1750 1534 2208 1698 2135 2281
0 0 0 0 0 0 0 0 0 0 0 0 0 0 0 0 0 0 7 431 543 688 707 564 427 257 477 622 782 998 1329 1520 1607 1435 1910 2078 2094 2169 2277 2265 2195 2243 2375 2427
0 0 0 0 0 0 0 0 0 0 5 0 0 0 0 0 0 0 0 427 694 673 729 560 415 357 531 712 892 1082 1300 1434 1617 1487 1702 1807 1949 2083 2323 2089 2207 2651 2596 2276
0 0 0 0 0 0 0 0 0 0 0 0 0 0 0 0 0 0 0 1 780 781 675 528 523 430 547 823 1021 1278 1397 1207 1438 1513 1589 1797 1981 2006 2042 2029 1953 2183 2537 2386
0 0 0 0 0 0 0 0 0 0 0 0 0 0 0 0 0 0 0 0 896 894 623 538 574 554 599 979 1324 1518 1485 1142 322 589 1470 1695 1913 2009 1968 2103 2121 2112 2637 2691
0 0 0 0 0 0 0 0 0 0 0 0 0 0 0 0 0 0 0 11 898 1006 847 826 844 940 954 1213 1598 1747 1694 629 168 209 946 1667 2015 2013 2134 2231 2345 2545 2835 3157
0 0 0 0 0 0 0 0 0 0 0 0 0 0 0 0 0 0 0 93 787 1100 1045 1079 1057 1271 1405 1541 1824 1968 1392 720 770 839 1771 1985 2404 2528 2626 2759 2677 2889 3224 3387
0 0 0 0 0 0 0 0 0 0 0 0 0 0 0 0 0 0 0 52 519 1135 1094 1107 1283 1539 1718 1755 1990 2013 1431 981 1614 1583 2062 2550 2912 2659 3112 3240 3167 3337 3571 3536
0 0 0 1 0 0 0 0 0 0 0 0 0 0 13 10 0 0 62 275 405 1085 1239 1149 1336 1572 1840 1809 2044 2023 2167 1928 1575 1536 1791 2079 1999 2497 3273 3491 3593 3616 3312 3074
62 24 3 50 0 1 2 0 0 0 0 0 0 0 32 338 475 304 125 320 507 943 1161 1381 1390 1468 1764 1735 1886 2035 1902 1524 1355 1206 1488 2000 2306 3260 3650 3669 3617 3609 3424 3498
123 121 40 48 5 11 29 9 0 0 0 0 4 213 424 550 674 905 803 462 682 849 1226 1366 1407 1444 1690 1726 1837 1879 1219 1131 997 1345 1695 2311 3363 3656 3693 3586 3617 3537 3483 3441
0 95 179 98 63 63 71 133 161 170 0 210 377 505 652 887 422 910 1584 1597 791 786 1032 1271 1284 1326 1562 1588 1785 1621 1179 983 1241 1550 2582 3603 3740 3772 3634 3668 3596 3541 3310 2845
0 0 23 135 94 64 58 200 223 20 170 580 718 886 860 969 1244 1455 2018 1980 1492 712 853 1186 1124 1069 1217 1492 1554 1329 1057 1327 2070 2553 3387 3798 3847 3740 3730 3507 3241 2962 2778 2456
0 0 0 43 100 63 264 139 168 542 768 748 862 1098 968 839 1099 1744 1970 2286 2079 1277 742 944 1085 1077 1174 1163 1102 865 1147 1486 2034 2739 3542 3941 3791 3429 3493 3266 3022 2909 2505 2242
0 0 0 7 119 475 394 515 409 454 545 585 825 1188 629 807 1226 1965 2301 2592 2090 1372 814 798 1187 1179 1178 917 1146 1457 1821 1527 1828 2895 3574 3905 3329 2924 3126 2990 2761 2429 2100 1295
122 198 48 65 387 350 427 418 412 488 506 459 649 1211 786 805 1175 2130 2561 2720 2559 2156 1442 1031 1302 1266 1135 897 1133 1589 2212 2220 1744 2311 3299 3370 3009 2939 2792 2493 2001 1185 871 896
122 146 2 119 377 429 325 113 28 374 455 352 457 874 1224 628 1313 1981 2324 2763 2512 2505 2623 2011 1585 1552 1281 1032 1063 1603 1814 1582 1487 1666 2873 3126 2727 2495 2046 534 522 635 143 345
326 0 25 0 286 118 1 0 49 332 313 392 475 662 875 1169 1192 1905 2148 2606 2335 2117 2594 2689 2234 1858 1890 1776 1088 897 940 724 659 1629 1513 2259 2004 1531 502 377 7 0 0 0
CIN
0 0 0 -85 -47 0 -31 -34 -27 -38 -61 -37 -23 -15 -79 -122 -131 -127 -117 -174 -250 -231 -115 -81 -54 -42 -45 -46 -41 -23 -19 -14 -12 -3 -2 -2 -1 -1 -1 0 -23 -7 -24 -30
0 0 0 0 0 0 0 -51 -27 -46 -73 -68 -21 -22 -35 -129 -127 -118 -126 -163 0 -235 -153 -114 -90 -56 -51 -46 -44 -37 -29 -30 -26 -8 -17 -8 -3 -1 -1 -1 -25 -16 -31 -27
0 0 0 0 0 0 -55 -79 0 -101 -35 -59 -63 -37 -35 -100 -139 -138 -145 -149 -90 -233 -182 -145 -108 -84 -50 -51 -46 -45 -39 -37 -36 -20 -34 -34 -30 -15 -2 -2 -9 -117 -63 -28
0 0 0 0 0 0 -46 0 0 -19 -70 -4 -61 -4 -31 -61 -148 -164 -160 -158 -175 -50 -220 -186 -156 -113 -77 -58 -52 -53 -50 -52 -39 -39 -33 -45 -27 -8 -7 -1 -5 -39 -40 -20
0 0 0 0 0 0 0 0 0 0 0 -92 -25 -20 -11 -59 -82 -124 -141 -146 -141 -218 -238 -192 -195 -170 -113 -89 -62 -44 -66 -59 -40 -46 -32 -41 -30 -10 -3 -1 -7 -11 -23 -36
0 0 0 0 0 0 0 0 0 -60 0 0 -30 -31 -6 -22 -34 -46 -101 -125 -147 -160 -216 -207 -201 -175 -132 -114 -84 -65 -68 -80 -59 -58 -48 -44 -31 -2 -1 -1 -3 -4 -5 -14
0 0 0 0 0 0 0 0 -67 -63 -53 -2 -47 -29 -7 -12 -40 -54 -48 -97 -139 -168 -184 -187 -190 -172 -149 -129 -105 -88 -70 -98 -85 -64 -48 -40 -38 -15 -4 -4 -4 -2 -3 -3
0 0 0 0 0 0 0 0 -32 -29 0 -7 -63 -30 -8 -46 -75 -108 -101 -72 -138 -164 -173 -158 -159 -160 -152 -116 -111 -72 -84 -93 -88 -70 -46 -41 -36 -13 -2 -4 -2 -3 -2 -2
0 0 0 0 0 0 0 0 -21 -23 -2 0 0 -47 0 0 -23 -58 -75 -104 -111 -151 -166 -164 -150 -164 -139 -108 -85 -66 -81 -94 -88 -62 -55 -48 -34 -19 -2 -4 -2 -3 -2 -1
0 0 0 0 0 0 0 0 0 0 0 0 0 0 0 0 0 0 -4 -106 -107 -154 -160 -150 -146 -160 -121 -100 -67 -61 -83 -82 -70 -58 -62 -47 -38 -29 -17 -15 -15 -3 0 -3
0 0 0 0 0 0 0 0 0 -1 -5 0 0 0 0 0 0 0 0 -78 -90 -127 -145 -129 -134 -130 -98 -93 -71 -66 -73 -56 -61 -55 -43 -49 -45 -31 -26 -20 -16 -9 -3 -4
0 0 0 0 0 0 0 0 0 0 0 0 0 0 0 0 0 0 0 -2 -106 -130 -161 -147 -116 -103 -97 -102 -79 -80 -93 -74 -85 -76 -66 -55 -53 -43 -31 -24 -23 -9 -6 -3
0 0 0 0 0 0 0 0 0 0 0 0 0 0 0 0 0 0 0 0 -124 -130 -134 -131 -106 -103 -115 -120 -132 -154 -134 -103 -100 -150 -96 -64 -72 -61 -41 -32 -35 -20 -4 0
0 0 0 0 0 0 0 0 0 0 0 0 0 0 0 0 0 0 0 -80 -96 -155 -127 -114 -89 -107 -109 -118 -195 -212 -194 -164 -264 -169 -92 -77 -86 -74 -47 -39 -36 -26 -11 -2
0 0 0 0 0 0 0 0 0 0 0 0 0 0 0 0 0 0 0 -124 -95 -157 -123 -117 -94 -116 -139 -151 -242 -261 -266 -214 -278 -233 -116 -111 -111 -76 -55 -58 -48 -26 -6 0
0 0 0 0 0 0 0 0 0 0 0 0 0 0 0 0 0 0 0 -150 -129 -140 -150 -120 -116 -131 -174 -170 -243 -291 -307 -306 -243 -212 -163 -127 -80 -79 -32 -68 -50 -20 -2 0
0 0 0 -2 0 0 0 0 0 0 0 0 0 0 -22 -8 0 0 -92 -139 -139 -149 -136 -149 -160 -154 -171 -195 -264 -271 -285 -287 -294 -264 -230 -180 -151 -81 -49 -67 -30 -11 -9 -4
-17 -15 -5 -6 -11 -3 -2 0 0 0 0 0 0 0 -45 -58 -60 -75 -144 -140 -129 -135 -163 -176 -184 -153 -185 -198 -230 -268 -336 -333 -321 -294 -260 -196 -143 -39 -42 -36 -26 -3 0 -1
-18 -3 -5 -5 -5 -6 -5 -10 0 0 0 0 -11 -48 -68 -63 -73 -107 -189 -206 -111 -118 -199 -213 -201 -155 -181 -236 -229 -346 -409 -375 -371 -273 -241 -166 -62 -52 -41 -27 -11 -3 -1 0
0 -20 -4 -5 -7 -6 -4 -21 -51 -28 0 -63 -108 -98 -121 -106 -13 -97 -271 -295 -271 -186 -183 -244 -236 -188 -215 -250 -270 -385 -373 -377 -304 -249 -161 -75 -72 -69 -49 -18 -11 -3 -1 -1
0 0 -11 -5 -5 -5 -33 -54 -56 -2 -28 -155 -172 -193 -194 -124 -187 -290 -313 -355 -361 -302 -289 -304 -274 -219 -220 -242 -322 -326 -308 -245 -161 -131 -80 -44 -55 -72 -36 -19 -16 -9 -9 -19
0 0 0 -5 -4 -4 -108 -90 -14 -115 -140 -179 -222 -244 -277 -318 -246 -324 -337 -336 -370 -415 -424 -371 -337 -293 -287 -321 -332 -360 -306 -261 -143 -46 -20 -16 -85 -85 -38 -31 -20 -15 -31 -39
0 0 0 -4 -4 -108 -120 -124 -181 -200 -173 -226 -252 -246 -366 -302 -217 -233 -249 -290 -309 -384 -473 -416 -364 -370 -336 -407 -336 -303 -304 -288 -293 -54 -1 -3 -82 -95 -71 -53 -34 -24 -42 -74
-31 -48 -11 -27 -65 -79 -127 -177 -202 -247 -237 -250 -256 -221 -290 -322 -272 -238 -242 -242 -267 -300 -333 -409 -363 -380 -362 -434 -387 -313 -249 -180 -247 -202 -34 -11 -39 -68 -51 -39 -61 -75 -77 -54
-28 -40 -11 -21 -69 -110 -149 -192 -103 -243 -248 -288 -282 -249 -245 -345 -262 -230 -240 -218 -267 -274 -233 -278 -322 -315 -340 -366 -338 -262 -216 -204 -163 -181 -61 -3 -17 -8 -33 -159 -56 -107 -339 -47
-39 0 -10 0 -44 -41 -8 0 -294 -244 -283 -301 -304 -250 -247 -261 -276 -245 -241 -222 -275 -307 -233 -196 -232 -253 -228 -234 -327 -300 -270 -201 -183 -146 -151 -43 -8 -51 -231 -278 -356 0 0 0
Wind_Speed
7 2 5 9 11 12 12 19 18 14 11 11 15 13 10 17 17 18 19 19 21 23 24 23 22 21 20 19 18 17 15 10 9 7 6 7 12 9 12 12 11 13 13 19
9 5 12 13 13 20 20 17 13 13 13 12 16 12 14 14 15 15 15 17 21 23 25 24 22 21 20 20 19 18 17 14 12 8 6 7 14 16 17 12 14 19 18 18
13 15 16 15 13 22 25 23 17 18 16 17 17 17 15 14 15 16 18 20 21 23 24 24 24 23 21 19 20 19 17 16 15 11 9 9 7 15 17 16 13 12 19 19
22 19 18 19 22 22 26 14 18 18 20 18 11 16 10 13 14 14 17 20 20 21 23 24 23 24 22 20 20 19 17 17 17 16 16 15 14 9 11 14 8 11 17 17
19 19 21 22 27 23 24 18 20 20 23 21 7 21 11 12 13 14 17 19 20 19 21 22 23 23 22 19 19 18 16 18 19 18 18 17 18 12 8 8 7 10 12 15
30 20 25 31 20 23 18 20 20 22 24 26 17 20 7 10 12 12 13 18 22 21 21 22 22 22 21 17 17 18 16 16 19 18 18 18 16 21 6 7 8 8 8 9
17 27 21 22 22 22 20 24 25 20 17 22 14 19 18 10 14 18 13 11 19 23 22 21 23 23 21 19 17 17 19 18 18 17 16 16 17 18 19 9 5 11 11 8
8 11 13 18 26 22 24 31 30 23 24 21 15 17 11 12 20 20 19 10 13 22 22 21 23 22 23 22 21 20 18 17 17 17 15 11 9 11 19 12 24 21 12 7
14 31 13 18 22 25 18 28 31 34 26 28 30 19 26 18 15 17 20 12 7 19 23 20 20 23 26 23 23 22 18 16 18 18 16 12 9 7 4 4 20 23 19 16
12 15 13 8 20 22 31 28 26 31 34 30 27 25 26 26 28 28 18 14 6 18 23 21 21 23 24 23 19 19 18 17 17 17 14 12 11 10 6 2 3 22 23 20
30 21 12 11 12 16 14 24 25 32 33 37 33 29 20 24 24 24 20 16 5 17 22 21 21 22 22 19 18 17 17 13 10 11 11 11 10 12 11 8 1 10 22 20
16 17 16 8 13 19 29 11 29 33 37 34 37 36 29 28 28 29 24 21 6 13 23 22 21 23 22 18 17 19 17 15 8 3 9 11 8 11 12 11 4 16 20 20
4 14 13 11 5 13 12 21 29 33 39 41 35 34 28 27 27 27 23 17 2 12 22 23 22 22 22 20 18 19 20 20 16 20 17 16 13 14 15 12 4 19 21 24
14 28 13 19 8 6 13 35 28 30 35 34 38 33 34 34 31 28 19 15 1 14 21 23 23 22 24 23 22 21 20 23 10 13 19 17 15 18 19 17 17 26 24 24
11 23 14 21 16 7 6 20 12 38 38 38 33 33 30 31 30 28 23 13 2 14 20 20 23 25 25 22 22 21 22 23 12 12 16 16 14 18 21 17 14 21 22 23
15 20 16 11 8 7 0 11 14 29 34 33 35 34 31 28 29 27 26 15 3 18 19 18 21 21 24 23 22 22 21 18 13 12 16 13 8 16 21 13 10 4 16 18
11 18 13 8 6 4 1 3 3 24 23 31 32 29 24 29 26 22 20 18 8 18 15 13 19 23 23 23 22 22 19 18 16 17 19 14 12 21 19 12 12 5 4 7
17 20 18 12 7 4 13 14 22 33 33 33 32 30 28 26 27 24 25 24 8 10 11 15 18 20 22 20 19 18 16 17 19 20 22 18 19 17 9 7 6 7 8 6
23 20 18 14 7 21 12 14 18 12 19 33 31 27 26 24 23 16 18 18 14 8 6 12 15 17 18 20 16 16 17 17 17 22 19 18 17 10 7 5 6 6 6 6
24 25 30 15 15 7 20 9 14 13 8 17 23 26 25 23 23 15 18 16 16 16 8 7 7 11 14 15 16 15 14 12 15 19 20 16 13 10 8 6 5 6 6 6
21 24 22 20 18 22 10 11 12 9 15 21 23 24 23 23 21 21 20 20 18 17 8 4 4 5 5 9 9 7 5 4 4 8 13 13 11 9 9 9 8 7 7 7
21 21 23 25 17 14 16 14 19 17 18 22 22 22 24 24 20 20 19 17 15 15 14 12 9 6 6 7 8 7 6 4 1 2 7 11 10 9 9 9 8 8 7 7
25 23 24 22 24 17 14 13 14 18 20 21 21 22 22 21 16 15 13 11 11 7 7 8 7 8 7 9 11 10 8 11 5 5 5 5 5 8 7 8 10 9 7 5
22 19 18 16 17 14 12 12 16 17 18 20 20 20 20 20 15 12 12 10 9 8 7 6 5 6 7 10 11 10 10 9 7 10 9 6 5 5 7 5 5 6 5 5
20 18 18 18 14 12 14 18 18 18 19 19 19 19 18 17 15 10 9 11 9 9 10 11 9 8 9 11 14 13 13 12 11 10 10 12 9 9 5 5 7 6 12 14
21 20 21 26 12 16 14 17 18 19 18 19 20 20 19 17 14 11 8 6 6 9 10 10 10 9 10 10 13 16 18 18 17 15 13 15 14 14 12 8 8 11 12 12
Wind_Direction
281 301 115 103 311 312 301 244 262 322 31 107 158 142 81 132 136 138 141 140 149 157 156 153 151 147 145 140 139 137 131 102 96 79 49 349 309 10 331 329 354 69 302 220
278 250 283 291 293 249 249 281 321 340 329 134 194 139 140 136 146 145 140 138 151 153 159 159 155 153 153 153 151 148 143 132 121 84 50 345 288 277 270 315 274 185 169 176
259 276 277 277 290 257 215 252 296 281 281 173 217 186 152 149 155 157 164 161 155 157 158 159 161 161 158 157 158 155 147 143 135 110 90 80 349 276 265 267 291 112 177 172
264 270 270 267 267 263 253 289 277 279 259 282 303 271 99 132 148 158 164 167 162 158 160 162 162 165 163 163 162 160 154 151 144 135 129 127 119 84 303 284 359 83 144 153
262 266 264 266 261 265 270 281 268 268 255 275 14 260 350 73 117 152 168 170 168 159 159 163 164 161 162 158 159 158 153 155 152 145 144 135 144 108 62 13 10 80 91 127
257 269 264 255 271 266 278 276 276 268 259 256 286 267 351 37 84 96 145 167 172 164 161 160 161 158 159 153 152 152 146 148 153 150 150 146 137 157 352 4 6 25 45 74
267 262 269 263 261 266 267 264 267 279 286 277 304 277 262 348 353 360 38 145 168 168 163 159 161 159 158 154 147 144 146 146 147 149 146 146 147 152 163 311 36 319 317 1
274 264 247 262 256 264 260 253 256 269 269 285 290 289 307 320 321 327 358 47 143 165 164 162 161 158 159 151 148 143 139 137 142 147 145 133 125 131 169 136 235 255 312 5
288 227 291 260 260 256 261 254 254 260 273 272 263 290 281 300 329 337 339 29 96 158 164 160 157 157 158 152 150 146 139 135 141 145 142 137 130 127 86 30 261 240 263 279
303 292 291 275 262 263 256 262 259 257 259 266 273 276 279 276 285 294 328 352 53 151 160 157 155 156 155 153 147 147 144 139 136 139 136 136 138 140 126 58 78 253 244 258
226 276 313 294 182 190 259 258 262 262 259 259 265 273 293 286 295 303 322 333 21 147 157 154 154 154 151 144 142 142 144 136 136 139 136 135 136 146 147 139 35 306 257 265
164 292 295 320 288 258 255 213 256 255 252 261 264 266 282 285 294 290 299 310 350 145 155 155 153 153 150 146 143 143 140 137 122 157 148 151 133 141 150 153 122 284 272 269
306 292 302 310 317 277 198 263 259 256 251 252 265 269 278 279 294 288 298 315 10 139 153 156 152 153 154 152 150 147 148 147 149 157 157 159 155 151 154 138 110 270 267 255
283 253 291 291 298 182 182 234 253 253 252 259 259 274 267 269 281 282 291 311 126 146 155 158 155 155 158 157 160 158 157 165 143 140 165 162 159 161 165 156 152 235 250 251
287 278 291 283 308 296 186 181 231 235 243 253 268 270 272 268 280 274 280 298 179 149 156 159 159 159 159 158 162 163 166 169 154 141 152 153 147 155 164 149 135 251 254 254
280 284 289 294 311 329 4 285 277 259 252 263 256 259 258 283 293 278 262 277 224 159 157 156 161 160 161 163 165 167 171 168 152 140 146 140 128 146 161 130 119 57 274 270
277 280 286 271 301 326 295 279 264 276 277 248 247 229 288 281 284 285 267 274 265 160 162 159 163 165 164 166 166 167 160 157 153 148 151 145 137 158 153 126 123 82 28 342
273 270 274 286 279 251 305 310 285 261 256 245 236 242 275 264 282 270 260 262 257 157 164 159 158 161 161 156 155 151 146 145 148 151 151 147 151 148 114 103 97 99 93 65
262 266 271 273 257 279 306 311 307 310 279 215 248 263 273 262 262 284 274 266 262 253 167 156 156 154 157 154 147 144 144 144 144 151 147 146 142 115 92 85 88 90 81 56
260 260 257 268 276 227 287 327 319 307 304 286 270 267 274 273 251 288 283 278 265 262 259 157 164 155 159 158 151 147 143 139 138 143 147 141 128 108 89 78 82 82 77 62
251 255 257 262 271 272 297 305 318 311 299 279 276 277 278 269 273 280 277 276 273 265 269 246 215 204 182 164 162 161 158 149 119 131 136 133 123 95 87 94 91 87 82 71
250 250 253 259 261 224 287 288 282 298 297 284 281 281 278 271 286 279 282 284 282 277 272 262 256 234 203 180 172 177 167 158 250 196 144 139 124 110 101 97 93 94 87 76
252 257 258 258 262 274 286 288 294 298 297 287 279 283 281 276 286 286 307 301 297 351 304 265 251 246 221 188 182 185 189 162 132 232 199 175 141 123 111 104 105 100 89 54
255 263 266 266 274 277 280 289 294 298 301 287 285 287 284 278 285 287 297 312 319 328 320 296 273 259 219 206 204 210 196 196 187 176 202 195 218 154 125 114 107 91 81 23
259 256 262 269 284 283 276 281 287 291 296 288 286 287 292 284 280 295 305 302 328 330 306 294 296 284 258 239 232 223 218 213 212 189 213 231 239 236 210 262 281 301 309 307
255 262 262 266 270 275 279 282 283 287 294 289 287 282 289 292 290 294 309 327 347 342 313 310 308 298 283 263 248 243 242 237 230 223 215 244 235 231 236 244 274 308 312 320